When you browse on this site, cookies collect data to enhance your experience and personalize the content and advertising you see.
Visit our Privacy Policy to learn more. By continuing to use the site, you agree to this use of cookies and data.
  • In Lithuania
  • List of Countries
  • For 7 days
  • Water Temperature
  • Satellite Maps
  • Weather Map
  • Weather Widgets
  • user-avatar
    Login

    Hourly Weather San Juan

    Today, 13 December, Thursday

    Time Temperature Precipitation Wind Pressure Humidity
    00:00 +27°C° 0.1 mm 1 mps 701 mmHg 47%
    01:00 +27°C° 0.1 mm 1 mps 701 mmHg 49%
    02:00 +26°C° 0 mm 1 mps 700 mmHg 51%
    03:00 +26°C° 0 mm 1 mps 700 mmHg 53%
    04:00 +26°C° 0 mm 2 mps 700 mmHg 55%
    05:00 +27°C° 0 mm 2 mps 700 mmHg 52%
    06:00 +28°C° 0 mm 3 mps 700 mmHg 48%
    07:00 +30°C° 0 mm 3 mps 700 mmHg 44%
    08:00 +32°C° 0 mm 4 mps 700 mmHg 36%
    09:00 +34°C° 0 mm 5 mps 700 mmHg 29%
    10:00 +36°C° 0 mm 5 mps 700 mmHg 22%
    11:00 +39°C° 0 mm 6 mps 699 mmHg 18%
    12:00 +40°C° 0 mm 7 mps 699 mmHg 14%
    13:00 +43°C° 0 mm 7 mps 698 mmHg 10%
    14:00 +43°C° 0 mm 9 mps 698 mmHg 8%
    15:00 +43°C° 0 mm 11 mps 698 mmHg 6%
    16:00 +45°C° 0 mm 13 mps 698 mmHg 5%
    17:00 +42°C° 0 mm 11 mps 698 mmHg 6%
    18:00 +39°C° 0 mm 10 mps 699 mmHg 6%
    19:00 +37°C° 0 mm 9 mps 699 mmHg 7%
    20:00 +35°C° 0 mm 7 mps 700 mmHg 8%
    21:00 +34°C° 0 mm 6 mps 700 mmHg 9%
    22:00 +33°C° 0 mm 5 mps 700 mmHg 10%
    23:00 +32°C° 0 mm 5 mps 700 mmHg 15%

    Tomorrow, 14 December, Friday

    Time Temperature Precipitation Wind Pressure Humidity
    00:00 +30°C° 0 mm 5 mps 700 mmHg 19%
    01:00 +29°C° 0 mm 4 mps 700 mmHg 23%
    02:00 +28°C° 0 mm 5 mps 701 mmHg 30%
    03:00 +27°C° 0 mm 6 mps 701 mmHg 37%
    04:00 +26°C° 0 mm 7 mps 702 mmHg 44%
    05:00 +24°C° 0.1 mm 7 mps 702 mmHg 41%
    06:00 +24°C° 0.1 mm 8 mps 703 mmHg 39%
    07:00 +24°C° 0.1 mm 8 mps 704 mmHg 36%
    08:00 +26°C° 0 mm 7 mps 704 mmHg 31%
    09:00 +27°C° 0 mm 7 mps 704 mmHg 26%
    10:00 +28°C° 0 mm 6 mps 704 mmHg 21%
    11:00 +29°C° 0 mm 6 mps 704 mmHg 19%
    12:00 +30°C° 0 mm 6 mps 704 mmHg 18%
    13:00 +32°C° 0 mm 6 mps 703 mmHg 16%
    14:00 +32°C° 0 mm 6 mps 703 mmHg 16%
    15:00 +32°C° 0 mm 6 mps 703 mmHg 17%
    16:00 +32°C° 0 mm 6 mps 703 mmHg 17%
    17:00 +30°C° 0 mm 6 mps 704 mmHg 19%
    18:00 +29°C° 0 mm 6 mps 705 mmHg 21%
    19:00 +28°C° 0 mm 5 mps 706 mmHg 24%
    20:00 +28°C° 0 mm 5 mps 707 mmHg 25%
    21:00 +27°C° 0 mm 5 mps 707 mmHg 26%
    22:00 +27°C° 0 mm 4 mps 708 mmHg 27%
    23:00 +26°C° 0 mm 4 mps 708 mmHg 28%

    Day after tomorrow, 15 December, Saturday

    Time Temperature Precipitation Wind Pressure Humidity
    00:00 +25°C° 0 mm 3 mps 707 mmHg 29%
    01:00 +25°C° 0 mm 2 mps 707 mmHg 31%
    02:00 +24°C° 0 mm 2 mps 707 mmHg 32%
    03:00 +24°C° 0 mm 2 mps 706 mmHg 33%
    04:00 +23°C° 0 mm 2 mps 706 mmHg 34%
    05:00 +24°C° 0 mm 2 mps 707 mmHg 32%
    06:00 +25°C° 0 mm 2 mps 707 mmHg 30%
    07:00 +26°C° 0 mm 2 mps 707 mmHg 28%
    08:00 +27°C° 0 mm 2 mps 707 mmHg 27%
    09:00 +29°C° 0 mm 3 mps 707 mmHg 27%
    10:00 +30°C° 0 mm 3 mps 706 mmHg 26%
    11:00 +31°C° 0 mm 3 mps 706 mmHg 25%
    12:00 +33°C° 0 mm 3 mps 705 mmHg 24%
    13:00 +34°C° 0 mm 4 mps 704 mmHg 22%
    14:00 +35°C° 0 mm 4 mps 704 mmHg 22%
    15:00 +35°C° 0 mm 4 mps 703 mmHg 21%
    16:00 +35°C° 0 mm 4 mps 703 mmHg 20%
    17:00 +34°C° 0 mm 4 mps 703 mmHg 21%
    18:00 +34°C° 0 mm 4 mps 703 mmHg 22%
    19:00 +33°C° 0 mm 4 mps 704 mmHg 23%
    20:00 +32°C° 0 mm 4 mps 704 mmHg 24%
    21:00 +30°C° 0 mm 4 mps 704 mmHg 26%
    22:00 +29°C° 0 mm 4 mps 705 mmHg 28%
    23:00 +29°C° 0 mm 3 mps 704 mmHg 30%

    16 December, Sunday

    Time Temperature Precipitation Wind Pressure Humidity
    00:00 +28°C° 0 mm 3 mps 704 mmHg 33%
    01:00 +28°C° 0 mm 3 mps 704 mmHg 35%
    02:00 +27°C° 0 mm 3 mps 703 mmHg 36%
    03:00 +27°C° 0 mm 3 mps 703 mmHg 38%
    04:00 +26°C° 0 mm 3 mps 703 mmHg 39%
    05:00 +27°C° 0 mm 2 mps 704 mmHg 36%
    06:00 +29°C° 0 mm 2 mps 704 mmHg 33%
    07:00 +30°C° 0 mm 2 mps 705 mmHg 30%
    08:00 +31°C° 0 mm 2 mps 705 mmHg 27%
    09:00 +32°C° 0 mm 2 mps 704 mmHg 24%
    10:00 +35°C° 0 mm 2 mps 704 mmHg 21%
    11:00 +36°C° 0 mm 3 mps 704 mmHg 19%
    12:00 +37°C° 0 mm 3 mps 703 mmHg 16%
    13:00 +38°C° 0 mm 4 mps 703 mmHg 14%
    14:00 +38°C° 0 mm 4 mps 702 mmHg 14%
    15:00 +38°C° 0 mm 4 mps 702 mmHg 14%
    16:00 +40°C° 0 mm 4 mps 702 mmHg 14%
    17:00 +38°C° 0 mm 3 mps 702 mmHg 16%
    18:00 +37°C° 0 mm 3 mps 703 mmHg 18%
    19:00 +35°C° 0 mm 2 mps 703 mmHg 20%
    20:00 +35°C° 0.1 mm 2 mps 704 mmHg 22%
    21:00 +34°C° 0.1 mm 2 mps 704 mmHg 24%
    22:00 +32°C° 0.1 mm 2 mps 704 mmHg 27%
    23:00 +32°C° 0 mm 1 mps 704 mmHg 28%

    17 December, Monday

    Time Temperature Precipitation Wind Pressure Humidity
    00:00 +31°C° 0 mm 1 mps 704 mmHg 29%
    01:00 +30°C° 0 mm 1 mps 704 mmHg 30%
    02:00 +29°C° 0.3 mm 4 mps 704 mmHg 34%
    03:00 +28°C° 0.3 mm 6 mps 704 mmHg 39%
    04:00 +26°C° 0.3 mm 8 mps 705 mmHg 43%
    05:00 +26°C° 0 mm 8 mps 705 mmHg 40%
    06:00 +26°C° 0 mm 8 mps 706 mmHg 38%
    07:00 +26°C° 0 mm 8 mps 707 mmHg 36%
    08:00 +27°C° 0 mm 8 mps 707 mmHg 33%
    09:00 +29°C° 0 mm 7 mps 706 mmHg 30%
    10:00 +30°C° 0 mm 7 mps 706 mmHg 27%
    11:00 +32°C° 0 mm 6 mps 706 mmHg 26%
    12:00 +33°C° 0 mm 6 mps 705 mmHg 24%
    13:00 +33°C° 0 mm 6 mps 705 mmHg 23%
    14:00 +34°C° 0 mm 6 mps 705 mmHg 23%
    15:00 +34°C° 0 mm 6 mps 705 mmHg 23%
    16:00 +34°C° 0 mm 6 mps 704 mmHg 23%
    17:00 +33°C° 0 mm 6 mps 705 mmHg 25%
    18:00 +32°C° 0 mm 5 mps 706 mmHg 26%
    19:00 +30°C° 0 mm 5 mps 706 mmHg 28%
    20:00 +30°C° 0.3 mm 5 mps 707 mmHg 32%
    21:00 +29°C° 0.3 mm 5 mps 707 mmHg 36%
    22:00 +29°C° 0.3 mm 5 mps 708 mmHg 40%
    23:00 +28°C° 0.8 mm 4 mps 707 mmHg 45%

    18 December, Tuesday

    Time Temperature Precipitation Wind Pressure Humidity
    00:00 +27°C° 0.8 mm 4 mps 707 mmHg 50%
    01:00 +27°C° 0.8 mm 3 mps 707 mmHg 55%
    02:00 +26°C° 0.4 mm 3 mps 707 mmHg 58%
    03:00 +26°C° 0.4 mm 3 mps 707 mmHg 60%
    04:00 +25°C° 0.4 mm 4 mps 708 mmHg 63%
    05:00 +25°C° 0.1 mm 3 mps 708 mmHg 61%
    06:00 +26°C° 0.1 mm 3 mps 708 mmHg 59%
    07:00 +26°C° 0.1 mm 3 mps 708 mmHg 57%
    08:00 +27°C° 0 mm 2 mps 708 mmHg 52%
    09:00 +29°C° 0 mm 2 mps 707 mmHg 47%
    10:00 +30°C° 0 mm 2 mps 707 mmHg 42%
    11:00 +31°C° 0 mm 2 mps 706 mmHg 39%
    12:00 +33°C° 0 mm 3 mps 705 mmHg 35%
    13:00 +35°C° 0 mm 3 mps 705 mmHg 31%
    14:00 +35°C° 0.1 mm 4 mps 704 mmHg 31%
    15:00 +35°C° 0.1 mm 4 mps 704 mmHg 30%
    16:00 +36°C° 0.1 mm 4 mps 703 mmHg 30%
    17:00 +35°C° 0.4 mm 4 mps 703 mmHg 34%
    18:00 +34°C° 0.4 mm 4 mps 703 mmHg 37%
    19:00 +33°C° 0.4 mm 5 mps 703 mmHg 41%
    20:00 +32°C° 0.2 mm 4 mps 704 mmHg 44%
    21:00 +30°C° 0.2 mm 4 mps 704 mmHg 47%
    22:00 +30°C° 0.2 mm 4 mps 704 mmHg 49%
    23:00 +29°C° 0 mm 4 mps 703 mmHg 50%
    Show more